Lexington Weather

Lexington, Massachusetts, USA

28°F
1/25/2021 8:59pm 
  • Lexington Conditions: Clear
  • Temperature: 27.9°F / -2.3°CColder 1.0°F than last hour.
  • Dew Point: 15.4°FIncreased 1.0°Fsince last hour.
  • Relative Humidity: 59%Increased 5.0% since last hour.
  • Wind: Wind from ENE ENE 4 mph, 10-min avg: 3 mph, gust: 5 mph
  • Barometer: 30.03 in Steady
  • Visibility: 10 miles
  • Snow Today: 0.0 in
  •   

Regional Weather Roundup
for Boston / Norton, MA

        
000
ASUS41 KBOX 242105
RWRBOX

REGIONAL WEATHER ROUNDUP
NATIONAL WEATHER SERVICE BOSTON/NORTON MA
400 PM EST SUN JAN 24 2021

NOTE:  "FAIR" INDICATES FEW OR NO CLOUDS BELOW 12,000 FEET WITH NO 
SIGNIFICANT WEATHER AND/OR OBSTRUCTIONS TO VISIBILITY.

MAZALL-242200-
EASTERN MASSACHUSETTS
  
CITY           SKY/WX    TMP DP  RH WIND       PRES   REMARKS
BOSTON         PTCLDY    29   2  31 NW22G30   29.92R WCI  15          
BEVERLY        CLEAR     31   6  35 NW22G31   29.87R WCI  18          
LAWRENCE       CLEAR     29   6  38 NW15G31   29.92R WCI  18          
BEDFORD        CLEAR     30   2  30 NW20G30   29.92R WCI  17          
BLUE HILL        N/A     27   2  34 W17G32    29.87R WCI  14          
NORWOOD        CLEAR     32   0  25 NW20G33   29.93R WCI  20          
MARSHFIELD     CLEAR     32   3  29 W8G18     29.89R WCI  25          
PLYMOUTH       CLEAR     31   1  28 NW18G30   29.88S WCI  19          
TAUNTON        CLEAR     32   0  25 NW13G24   29.92R WCI  22          
NEW BEDFORD    CLEAR     30   2  30 W15G21    29.92R WCI  19          
$$

MAZALL-242200-
CAPE COD AND THE ISLANDS
  
CITY           SKY/WX    TMP DP  RH WIND       PRES   REMARKS
FALMOUTH       NOT AVBL                                               
HYANNIS        CLEAR     33   2  26 NW12G23   29.85R WCI  24          
CHATHAM        CLEAR     32   7  35 W9G25     29.86R WCI  24          
PROVINCETOWN   CLEAR     32  16  51 NW25G37   29.86R WCI  19          
NANTUCKET      CLEAR     29   6  38 NW23G30   29.88S WCI  15          
MARTHAS VNYRD  CLEAR     31   4  31 W21G33    29.91R WCI  18          
$$
 
MAZALL-242200-
CENTRAL AND WESTERN MASSACHUSETTS
  
CITY           SKY/WX    TMP DP  RH WIND       PRES   REMARKS
WORCESTER      CLEAR     25  -2  31 W16G24    29.91R WCI  12          
FITCHBURG      CLEAR     27  -1  30 NW28G35   29.95R WCI  11          
ORANGE         CLEAR     27  -2  28 NW8       29.99R WCI  19          
SPRINGFIELD    NOT AVBL                                               
WESTFIELD      CLEAR     25  -1  32 NW14G24   30.04R WCI  13          
NORTH ADAMS    CLEAR     21   3  45 W13G24    30.05R WCI   9          
PITTSFIELD     CLEAR     17   1  49 NW9       30.01R WCI   6          
$$
 
RIZALL-242200-
RHODE ISLAND
  
CITY           SKY/WX    TMP DP  RH WIND       PRES   REMARKS
PROVIDENCE     PTCLDY    30  -1  26 NW18G29   29.96R WCI  18          
NEWPORT        CLEAR     30   3  31 NW18G28   29.94R WCI  18          
BLOCK ISLAND   PTCLDY    29   4  34 NW18G31   29.99R WCI  16          
SMITHFIELD     CLEAR     27   2  34 NW12G18   29.94R WCI  17          
WESTERLY       CLEAR     27  -4  26 NW15G24   29.99S WCI  15          
$$
 
CTZALL-242200-
CONNECTICUT
  
CITY           SKY/WX    TMP DP  RH WIND       PRES   REMARKS
BRADLEY INTL   PTCLDY    26  -1  31 NW21G26   30.06R WCI  12          
HARTFORD       CLEAR     29  -2  26 NW13G23   30.07R WCI  19          
BRIDGEPORT     CLEAR     33   1  25 NW12      30.08S WCI  24          
DANBURY        CLEAR     30  -2  25 NW13G23   30.07S WCI  20          
GROTON         CLEAR     30  -2  25 NW20G29   30.02R WCI  17          
NEW HAVEN      CLEAR     32   2  27 NW12G22   30.06F WCI  23          
CHESTER        FAIR      28  -2  26 NW10G23   30.03S WCI  19          
MERIDEN        CLEAR     29   0  28 NW13      30.07R WCI  19          
WILLIMANTIC    CLEAR     27  -3  27 NW13G29   30.03R WCI  16          
OXFORD         CLEAR     27   2  34 NW10G18   30.05R WCI  17          
$$

MEZ002-015-021-024-NHZ003-005-008-011-012-014-VTZ005-008-242200-
NORTHERN NEW ENGLAND
  
CITY           SKY/WX    TMP DP  RH WIND       PRES   REMARKS
PORTLAND ME    CLEAR     28  10  46 NW10      29.82R WCI  19          
BANGOR ME      PTCLDY    20   4  50 NW13      29.75R WCI   7          
CONCORD NH     CLEAR     26   6  42 NW23G30   29.93R WCI  11          
MANCHESTER NH  MOCLDY    29   4  34 NW13G23   29.92R WCI  19          
NASHUA NH      CLEAR     27   5  39 W15G22    29.95R WCI  15          
PORTSMOUTH NH  NOT AVBL                                               
JAFFREY NH     CLEAR     24  -1  33 N9G26     29.92R WCI  14          
KEENE NH       CLEAR     26   2  35 NW9       29.99R WCI  17          
BURLINGTON VT  CLEAR     19   1  45 N9        30.08S WCI   8          
MT. WASHINGTON BLWGSNOW   3   0  85 NW71G89     N/A  VSB 1/16WCI -30  
$$

NYZ052-076-242200-
EASTERN NEW YORK
  
CITY           SKY/WX    TMP DP  RH WIND       PRES   REMARKS
ALBANY         PTCLDY    19   2  47 W18G29    30.13S WCI   4          
NEW YORK CITY  MOCLDY    34   6  31 NW14G21   30.12S WCI  25          
$$
 
ANZALL-242200-
MARINE OBSERVATIONS
  
STATION/POSITION TIME  TEMP    WIND        PRES    VSBY  WAVE
                       AIR SEA DIR/SP/G                  HT/PER
                 (UTC) (F)     (DEG/KT/KT) (MB)    (MI)  (FT/S)
BOSTON BUOY      2040   32 42  290/ 23/ 29 1012.5R
BUZZARDS BAY     2000          300/ 25/ 30 1014.3R
NANTUCKET SOUND  2040          280/ 21/ 27   N/A
MASS BAY-STELLWA 2004   33     300/ 23/ 33 1009.5R  1 7/8  4/ 4
ISLE OF SHOALS   2000   29     300/ 28/ 31 1009.6R
S OF BLOCK IS    2026      47                N/A           9/ 7
$$

......................KEY.........................
  SKY/WX - SKY CONDITION/PRESENT WEATHER
  TMP    - TEMPERATURE IN FAHRENHEIT
  DWPT   - DEWPOINT IN FAHRENHEIT
  RH     - RELATIVE HUMIDITY IN PERCENT
  WIND   - DIRECTION AND SPEED IN MPH
  PRES   - MEAN SEA LEVEL PRESSURE IN INCHES OF HG
  WCI    - WIND CHILL INDEX
  VSB    - VISIBILITY IN MILES
  HX     - HEAT INDEX
  TC     - TEMPERATURE IN CELSIUS
  VRB    - VARIABLE WIND DIRECTION
  N/A    - NOT AVAILABLE
  
      

Other recent Regional Weather Roundups

Mon Jan 25, 8:04pm

Mon Jan 25, 7:04pm

Mon Jan 25, 6:05pm

Mon Jan 25, 5:04pm

Mon Jan 25, 4:04pm

Mon Jan 25, 3:04pm

Mon Jan 25, 2:05pm

Mon Jan 25, 1:04pm

Mon Jan 25, 12:05pm

Mon Jan 25, 11:04am

Mon Jan 25, 10:04am

Mon Jan 25, 9:04am

Mon Jan 25, 8:05am

Mon Jan 25, 6:04am

Mon Jan 25, 5:04am

Mon Jan 25, 4:04am

Mon Jan 25, 3:04am

Mon Jan 25, 2:04am

Mon Jan 25, 1:04am

Sun Jan 24, 11:04pm

Sun Jan 24, 10:04pm

Sun Jan 24, 9:04pm

Sun Jan 24, 6:04pm

Sun Jan 24, 5:04pm

Sun Jan 24, 3:05pm

Sun Jan 24, 2:05pm

Sun Jan 24, 1:04pm

Sun Jan 24, 12:04pm

Sun Jan 24, 11:04am

Sun Jan 24, 10:04am

Sun Jan 24, 9:04am

Sun Jan 24, 8:04am

Sun Jan 24, 7:04am

Sun Jan 24, 6:04am

Sun Jan 24, 5:04am

Sun Jan 24, 4:04am

Sun Jan 24, 3:04am

Sun Jan 24, 2:04am

Sun Jan 24, 1:04am

Sun Jan 24, 12:04am

Sat Jan 23, 11:04pm

Sat Jan 23, 10:04pm

Sat Jan 23, 9:04pm

Sat Jan 23, 8:04pm

Sat Jan 23, 7:04pm

Sat Jan 23, 6:04pm

Sat Jan 23, 5:04pm

Sat Jan 23, 4:05pm

Sat Jan 23, 3:05pm

Sat Jan 23, 2:05pm

Sat Jan 23, 12:04pm

Sat Jan 23, 11:04am

Sat Jan 23, 10:04am

Sat Jan 23, 9:04am

Sat Jan 23, 8:04am

Sat Jan 23, 7:04am

Sat Jan 23, 6:04am

Sat Jan 23, 5:04am

Sat Jan 23, 4:04am

Meta data:

ID: d494dd22-5204-42b1-9df7-348b1b46c17a
Link: https://api.weather.gov/products/d494dd22-5204-42b1-9df7-348b1b46c17a